RANA Weather Reports


time (UTC)temp
C
wind
direction
speed
KPH
gust
KPH
rain 1hr
cm
rain 24hr
cm
rain mn
cm
humidity
%
barometer
mb
20260507161011 7 6 14.5 17.7 0.00 0.00 0.00 92
20260507160511 7 359 17.7 20.9 0.00 0.00 0.00 92
20260507160011 7 348 20.9 25.7 0.00 0.00 0.00 92
20260507155517 7 10 20.9 25.7 0.00 0.00 0.00 92
20260507155010 7 3 29.0 29.0 0.00 0.00 0.00 92
20260507154511 7 2 29.0 32.2 0.00 0.00 0.00 91
20260507154017 8 345 20.9 20.9 0.00 0.00 0.00 91
20260507153511 8 341 17.7 20.9 0.00 0.00 0.00 91
20260507153015 8 327 14.5 17.7 0.00 0.00 0.00 91
20260507152511 8 290 20.9 25.7 0.00 0.00 0.00 91
20260507152019 8 262 17.7 20.9 0.00 0.00 0.00 90
20260507151511 8 264 14.5 17.7 0.00 0.00 0.00 89
20260507151010 8 240 11.3 11.3 0.00 0.00 0.00 89
20260507150511 8 229 11.3 11.3 0.00 0.00 0.00 89
20260507150010 8 205 6.4 6.4 0.00 0.00 0.00 89
20260507145510 8 205 6.4 6.4 0.00 0.00 0.00 88
20260507145017 8 205 3.2 6.4 0.00 0.00 0.00 88
20260507144511 8 238 3.2 3.2 0.00 0.00 0.00 88
20260507144011 8 230 6.4 11.3 0.00 0.00 0.00 88
20260507143511 8 278 3.2 3.2 0.00 0.00 0.00 88
20260507143010 8 273 3.2 6.4 0.00 0.00 0.00 88
20260507142511 8 291 6.4 6.4 0.00 0.00 0.00 88
20260507142014 8 236 14.5 17.7 0.00 0.00 0.00 88
20260507141511 8 208 20.9 20.9 0.00 0.00 0.00 87
20260507141011 8 209 20.9 25.7 0.00 0.00 0.00 87
20260507140510 8 207 25.7 29.0 0.00 0.00 0.00 86
20260507140010 8 202 20.9 25.7 0.00 0.00 0.00 86
20260507135511 8 199 20.9 20.9 0.00 0.00 0.00 86
20260507135010 8 230 20.9 25.7 0.00 0.00 0.00 85
20260507134511 8 198 20.9 29.0 0.00 0.00 0.00 84
20260507134010 10 218 6.4 14.5 0.00 0.00 0.00 84
20260507133510 8 184 17.7 20.9 0.00 0.00 0.00 84
20260507133011 10 230 20.9 25.7 0.00 0.00 0.00 83
20260507132510 10 213 17.7 25.7 0.00 0.00 0.00 83
20260507132010 11 243 11.3 14.5 0.00 0.00 0.00 82
20260507131511 11 277 11.3 14.5 0.00 0.00 0.00 82
20260507131011 11 284 14.5 14.5 0.00 0.00 0.00 82
20260507130509 11 286 17.7 17.7 0.00 0.00 0.00 83
20260507130011 10 282 20.9 25.7 0.00 0.00 0.00 82
20260507125510 10 271 25.7 29.0 0.00 0.00 0.00 81
20260507125011 11 253 29.0 32.2 0.00 0.00 0.00 80
20260507124510 11 249 25.7 29.0 0.00 0.00 0.00 79
20260507124010 11 237 29.0 32.2 0.00 0.00 0.00 79
20260507123510 11 211 29.0 29.0 0.00 0.00 0.00 79
20260507123011 11 216 32.2 35.4 0.00 0.00 0.00 78
20260507122510 12 215 32.2 35.4 0.00 0.00 0.00 75
20260507122012 12 213 29.0 32.2 0.00 0.00 0.00 75
20260507121511 12 212 25.7 29.0 0.00 0.00 0.00 74
20260507121010 12 220 20.9 32.2 0.00 0.00 0.00 75
20260507120509 12 230 17.7 25.7 0.00 0.00 0.00 75
20260507120010 12 231 14.5 17.7 0.00 0.00 0.00 77
20260507115516 12 241 20.9 25.7 0.00 0.00 0.00 77
20260507115010 12 225 20.9 20.9 0.00 0.00 0.00 77
20260507114510 12 231 20.9 29.0 0.00 0.00 0.00 77
20260507114010 12 233 20.9 25.7 0.00 0.00 0.00 77
20260507113510 12 221 17.7 20.9 0.00 0.00 0.00 78
20260507113011 12 230 25.7 25.7 0.00 0.00 0.00 78
20260507112511 12 228 20.9 25.7 0.00 0.00 0.00 79
20260507112013 12 234 20.9 29.0 0.00 0.00 0.00 80
20260507111511 12 219 17.7 17.7 0.00 0.00 0.00 80
20260507111011 12 222 17.7 25.7 0.00 0.00 0.00 80
20260507110510 12 217 17.7 20.9 0.00 0.00 0.00 81
20260507110010 11 227 20.9 29.0 0.00 0.00 0.00 81
20260507105518 11 232 20.9 25.7 0.00 0.00 0.00 81
20260507105010 11 230 20.9 25.7 0.00 0.00 0.00 81
20260507104510 11 231 25.7 29.0 0.00 0.00 0.00 82
20260507104010 11 241 25.7 32.2 0.00 0.00 0.00 82
20260507103511 11 243 29.0 32.2 0.00 0.00 0.00 82
20260507103010 11 247 32.2 35.4 0.00 0.00 0.00 82
20260507102511 11 242 32.2 35.4 0.00 0.00 0.00 81
20260507102018 11 236 29.0 32.2 0.00 0.00 0.00 81
20260507101511 11 261 29.0 35.4 0.00 0.00 0.00 82
20260507101011 12 256 32.2 32.2 0.00 0.00 0.00 83
20260507100509 11 239 20.9 29.0 0.00 0.00 0.00 83
20260507100011 11 258 25.7 29.0 0.00 0.00 0.00 83
20260507095510 11 245 20.9 25.7 0.00 0.00 0.00 84
20260507095011 11 240 25.7 29.0 0.00 0.00 0.00 84
20260507094505 11 233 29.0 32.2 0.00 0.00 0.00 84
20260507094011 11 245 32.2 32.2 0.00 0.00 0.00 84
20260507093510 11 223 32.2 35.4 0.00 0.00 0.00 83
20260507093011 12 209 32.2 40.2 0.00 0.00 0.00 84
20260507092511 12 197 14.5 17.7 0.00 0.00 0.00 86
20260507092013 12 181 17.7 25.7 0.00 0.00 0.00 86
20260507091510 12 203 25.7 32.2 0.00 0.00 0.00 87
20260507091010 12 203 11.3 14.5 0.00 0.00 0.00 89
20260507090511 11 249 20.9 25.7 0.00 0.00 0.00 89
20260507090010 11 236 17.7 20.9 0.00 0.00 0.00 90
20260507085510 11 244 20.9 25.7 0.00 0.00 0.00 90
20260507085010 11 216 25.7 29.0 0.00 0.00 0.00 90
20260507084510 11 200 17.7 25.7 0.00 0.00 0.00 91
20260507084011 11 183 17.7 20.9 0.00 0.00 0.00 90
20260507083511 11 174 17.7 20.9 0.00 0.00 0.00 91
20260507083010 11 208 20.9 29.0 0.00 0.00 0.00 91
20260507082511 11 224 20.9 20.9 0.00 0.00 0.00 91
20260507082012 11 231 20.9 29.0 0.00 0.00 0.00 92
20260507081511 10 258 25.7 32.2 0.00 0.00 0.00 92
20260507081011 10 259 25.7 29.0 0.00 0.00 0.00 92
20260507080509 10 245 29.0 32.2 0.00 0.00 0.00 93
20260507080011 8 241 25.7 29.0 0.00 0.00 0.00 93
20260507075510 8 233 25.7 29.0 0.00 0.00 0.00 92
20260507075010 8 232 25.7 29.0 0.00 0.00 0.00 92
20260507074510 8 236 29.0 29.0 0.00 0.00 0.00 92
20260507074011 8 234 25.7 29.0 0.00 0.00 0.00 93
20260507073510 8 236 20.9 20.9 0.00 0.00 0.00 92
20260507073010 10 233 29.0 29.0 0.00 0.00 0.00 92
20260507072510 10 239 25.7 32.2 0.00 0.00 0.00 93
20260507072013 8 237 25.7 29.0 0.00 0.00 0.00 93
20260507071503 8 218 20.9 25.7 0.00 0.00 0.00 93
20260507071009 8 205 29.0 29.0 0.00 0.00 0.00 93
20260507070517 10 215 20.9 25.7 0.00 0.00 0.00 93
20260507070012 8 224 29.0 29.0 0.00 0.00 0.00 93
20260507065511 8 231 29.0 32.2 0.00 0.00 0.00 93
20260507065011 8 242 29.0 32.2 0.00 0.00 0.00 93
20260507064518 8 249 32.2 35.4 0.00 0.00 0.00 93
20260507064010 8 241 29.0 32.2 0.00 0.00 0.00 93
20260507063515 8 239 29.0 32.2 0.00 0.00 0.00 93
20260507063010 8 239 32.2 35.4 0.00 0.00 0.00 93
20260507062510 10 245 32.2 40.2 0.00 0.00 0.00 93
20260507062012 10 233 20.9 25.7 0.00 0.00 0.00 93
20260507061518 10 229 20.9 29.0 0.00 0.00 0.00 93
20260507061011 10 231 20.9 25.7 0.00 0.00 0.00 93
20260507060510 10 232 20.9 25.7 0.00 0.00 0.00 93
20260507060011 10 229 20.9 25.7 0.00 0.00 0.00 93
20260507055515 10 237 20.9 25.7 0.00 0.00 0.00 93
20260507055011 10 244 20.9 25.7 0.00 0.00 0.00 93
20260507054510 8 245 25.7 25.7 0.00 0.00 0.00 93
20260507054010 8 245 20.9 25.7 0.00 0.00 0.00 93
20260507053511 8 248 17.7 20.9 0.00 0.00 0.00 93
20260507053010 8 250 17.7 17.7 0.00 0.00 0.00 92
20260507052511 8 244 17.7 20.9 0.00 0.00 0.00 92
20260507052012 8 240 17.7 17.7 0.00 0.00 0.00 92
20260507051511 8 253 14.5 17.7 0.00 0.00 0.00 92
20260507051010 8 249 17.7 20.9 0.00 0.00 0.00 92
20260507050510 8 244 17.7 20.9 0.00 0.00 0.00 92
20260507050011 8 252 14.5 17.7 0.00 0.00 0.00 92
20260507045510 8 235 17.7 20.9 0.00 0.00 0.00 92
20260507045011 8 222 20.9 25.7 0.00 0.00 0.00 92
20260507044518 10 226 20.9 25.7 0.00 0.00 0.00 92
20260507044010 8 219 29.0 29.0 0.00 0.00 0.00 92
20260507043511 8 219 25.7 29.0 0.00 0.00 0.00 92
20260507043010 8 212 29.0 29.0 0.00 0.00 0.00 92
20260507042510 8 206 29.0 29.0 0.00 0.00 0.00 91
20260507042010 8 201 25.7 32.2 0.00 0.00 0.00 92
20260507041516 8 199 20.9 29.0 0.00 0.00 0.00 91
20260507041010 8 200 17.7 25.7 0.00 0.00 0.00 91
20260507040511 8 196 17.7 20.9 0.00 0.00 0.00 91
20260507040011 8 206 20.9 25.7 0.00 0.00 0.00 91
20260507035510 8 203 20.9 25.7 0.00 0.00 0.00 91
20260507035011 8 202 25.7 29.0 0.00 0.00 0.00 91
20260507034510 8 201 25.7 29.0 0.00 0.00 0.00 90
20260507034010 8 197 25.7 25.7 0.00 0.00 0.00 90
20260507033511 8 192 17.7 25.7 0.00 0.00 0.00 90
20260507033010 8 192 20.9 25.7 0.00 0.00 0.00 90
20260507032510 10 204 29.0 32.2 0.00 0.00 0.00 90
20260507032013 10 197 25.7 32.2 0.00 0.00 0.00 90
20260507031510 10 207 29.0 32.2 0.00 0.00 0.00 91
20260507031008 10 216 20.9 25.7 0.00 0.00 0.00 91
20260507030510 10 214 20.9 25.7 0.00 0.00 0.00 91
20260507030010 8 210 25.7 25.7 0.00 0.00 0.00 90
20260507025510 8 204 25.7 29.0 0.00 0.00 0.00 90
20260507025010 8 212 20.9 25.7 0.00 0.00 0.00 91
20260507024511 10 216 20.9 25.7 0.00 0.00 0.00 90
20260507024010 10 229 25.7 25.7 0.00 0.00 0.00 90
20260507023510 10 233 25.7 25.7 0.00 0.00 0.00 90
20260507023011 10 238 25.7 25.7 0.00 0.00 0.00 91
20260507022510 10 242 25.7 25.7 0.00 0.00 0.00 91
20260507022011 10 239 25.7 29.0 0.00 0.00 0.00 91
20260507021511 10 227 25.7 25.7 0.00 0.00 0.00 91
20260507021010 10 227 20.9 25.7 0.00 0.00 0.00 91
20260507020518 10 220 25.7 25.7 0.00 0.00 0.00 91
20260507020010 10 226 20.9 25.7 0.00 0.00 0.00 91
20260507015510 10 230 20.9 25.7 0.00 0.00 0.00 91
20260507015010 10 220 20.9 20.9 0.00 0.00 0.00 91
20260507014510 10 223 20.9 25.7 0.00 0.00 0.00 91
20260507014011 10 216 20.9 20.9 0.00 0.00 0.00 91
20260507013510 10 226 20.9 25.7 0.00 0.00 0.00 90
20260507013012 10 232 20.9 25.7 0.00 0.00 0.00 90
20260507012511 10 225 25.7 29.0 0.00 0.00 0.00 90
20260507012004 10 228 25.7 29.0 0.00 0.00 0.00 90
20260507011510 10 227 20.9 25.7 0.00 0.00 0.00 90
20260507011011 10 231 20.9 20.9 0.00 0.00 0.00 90
20260507010510 10 230 20.9 20.9 0.00 0.00 0.00 89
20260507010011 10 223 17.7 20.9 0.00 0.00 0.00 90
20260507005509 10 228 20.9 25.7 0.00 0.00 0.00 90
20260507005010 10 236 25.7 25.7 0.00 0.00 0.00 90
20260507004010 10 218 20.9 25.7 0.00 0.00 0.00 89
20260507003510 10 210 25.7 29.0 0.00 0.00 0.00 88
20260507003010 10 230 20.9 25.7 0.00 0.00 0.00 88
20260507002511 11 264 25.7 25.7 0.00 0.00 0.00 89
20260507002012 11 259 20.9 20.9 0.00 0.00 0.00 89
20260507001511 11 256 20.9 20.9 0.00 0.00 0.00 89
20260507001010 10 265 20.9 20.9 0.00 0.00 0.00 89
20260507000511 10 254 17.7 20.9 0.00 0.00 0.00 89
20260507000011 10 255 20.9 20.9 0.00 0.00 0.00 89
20260506235511 10 248 20.9 25.7 0.00 0.00 0.00 89
20260506235010 10 231 17.7 20.9 0.00 0.00 0.00 88
20260506234510 10 213 17.7 17.7 0.00 0.00 0.00 88
20260506234011 10 240 17.7 17.7 0.00 0.00 0.00 88
20260506233510 10 242 20.9 20.9 0.00 0.00 0.00 88
20260506233010 10 237 17.7 20.9 0.00 0.00 0.00 88
20260506232514 10 226 17.7 20.9 0.00 0.00 0.00 88
20260506232012 10 207 14.5 14.5 0.00 0.00 0.00 88
20260506231510 10 209 17.7 20.9 0.00 0.00 0.00 88
20260506231010 10 206 17.7 20.9 0.00 0.00 0.00 87
20260506230511 10 205 17.7 25.7 0.00 0.00 0.00 88
20260506230010 10 218 17.7 20.9 0.00 0.00 0.00 88
20260506225510 10 216 17.7 25.7 0.00 0.00 0.00 88
20260506225010 10 234 17.7 20.9 0.00 0.00 0.00 87
20260506224510 10 254 20.9 20.9 0.00 0.00 0.00 87
20260506224011 10 256 17.7 17.7 0.00 0.00 0.00 86
20260506223511 10 262 25.7 25.7 0.00 0.00 0.00 86
20260506223010 10 231 17.7 17.7 0.00 0.00 0.00 85
20260506222513 10 230 17.7 17.7 0.00 0.00 0.00 85
20260506222016 11 224 17.7 20.9 0.00 0.00 0.00 85
20260506221510 11 207 20.9 20.9 0.00 0.00 0.00 85
20260506221010 11 211 25.7 29.0 0.00 0.00 0.00 83
20260506220511 11 203 17.7 17.7 0.00 0.00 0.00 84
20260506220011 11 204 25.7 29.0 0.00 0.00 0.00 84
20260506215510 11 204 32.2 32.2 0.00 0.00 0.00 85
20260506215010 11 203 29.0 29.0 0.00 0.00 0.00 85
20260506214510 11 207 25.7 29.0 0.00 0.00 0.00 86
20260506214011 10 230 20.9 29.0 0.00 0.00 0.00 85
20260506213510 10 229 25.7 29.0 0.00 0.00 0.00 84
20260506213011 11 251 25.7 29.0 0.00 0.00 0.00 84
20260506212510 11 225 20.9 29.0 0.00 0.00 0.00 84
20260506212020 11 233 29.0 32.2 0.00 0.00 0.00 83
20260506211511 11 233 29.0 32.2 0.00 0.00 0.00 82
20260506211010 11 218 25.7 29.0 0.00 0.00 0.00 81
20260506210510 12 219 25.7 25.7 0.00 0.00 0.00 78
20260506210010 12 213 14.5 14.5 0.00 0.00 0.00 75
20260506205510 12 201 6.4 11.3 0.00 0.00 0.00 74
20260506204511 12 138 3.2 3.2 0.00 0.00 0.00 74
20260506203510 12 138 0.0 3.2 0.00 0.00 0.00 73
20260506203011 12 117 6.4 6.4 0.00 0.00 0.00 73
20260506202503 12 117 6.4 6.4 0.00 0.00 0.00 74
20260506202012 12 94 6.4 6.4 0.00 0.00 0.00 74
20260506201517 12 112 6.4 11.3 0.00 0.00 0.00 75
20260506201010 12 95 6.4 11.3 0.00 0.00 0.00 75
20260506200511 12 104 11.3 11.3 0.00 0.00 0.00 74
20260506200011 12 85 14.5 14.5 0.00 0.00 0.00 74
20260506195509 12 101 11.3 11.3 0.00 0.00 0.00 74
20260506195018 12 110 11.3 11.3 0.00 0.00 0.00 73
20260506194510 12 118 14.5 14.5 0.00 0.00 0.00 73
20260506194011 12 123 14.5 14.5 0.00 0.00 0.00 72
20260506193511 12 129 17.7 20.9 0.00 0.00 0.00 71
20260506193011 12 128 17.7 17.7 0.00 0.00 0.00 68
20260506192510 13 135 17.7 17.7 0.00 0.00 0.00 63
20260506192011 13 122 11.3 11.3 0.00 0.00 0.00 61
20260506191510 15 72 11.3 11.3 0.00 0.00 0.00 60
20260506191010 15 44 6.4 11.3 0.00 0.00 0.00 61
20260506190510 15 27 11.3 14.5 0.00 0.00 0.00 62
20260506190011 13 22 14.5 14.5 0.00 0.00 0.00 65
20260506185515 13 26 11.3 11.3 0.00 0.00 0.00 65
20260506185011 13 1 11.3 11.3 0.00 0.00 0.00 65
20260506184510 13 1 14.5 14.5 0.00 0.00 0.00 64
20260506184011 13 7 17.7 17.7 0.00 0.00 0.00 65
20260506183510 13 25 17.7 20.9 0.00 0.00 0.00 65
20260506183011 13 63 11.3 11.3 0.00 0.00 0.00 66
20260506182510 13 190 6.4 6.4 0.00 0.00 0.00 66
20260506182012 13 197 20.9 25.7 0.00 0.00 0.00 67
20260506181510 12 189 25.7 32.2 0.00 0.00 0.00 66
20260506181009 15 207 17.7 25.7 0.00 0.00 0.00 62
20260506180510 15 255 14.5 17.7 0.00 0.00 0.00 62
20260506180010 15 277 11.3 14.5 0.00 0.00 0.00 62
20260506175511 15 302 14.5 14.5 0.00 0.00 0.00 62
20260506175011 15 290 17.7 20.9 0.00 0.00 0.00 62
20260506174517 15 296 14.5 14.5 0.00 0.00 0.00 61
20260506174010 15 291 14.5 17.7 0.00 0.00 0.00 60
20260506173510 16 297 11.3 14.5 0.00 0.00 0.00 57
20260506173012 16 299 11.3 11.3 0.00 0.00 0.00 57
20260506171012 16 317 6.4 6.4 0.00 0.00 0.00 56
20260506165011 16 317 3.2 3.2 0.00 0.00 0.00 56
20260506164510 16 317 3.2 3.2 0.00 0.00 0.00 55
20260506163510 16 317 0.0 0.0 0.00 0.00 0.00 55
20260506162509 16 317 0.0 3.2 0.00 0.00 0.00 55
20260506162017 17 317 0.0 3.2 0.00 0.00 0.00 54
20260506161511 17 317 0.0 0.0 0.00 0.00 0.00 54